QPF
0.00 0.00 0.01 0.01 0.00 0.00 0.01 0.01 0.00 0.00 0.00 0.00 0.00 0.00 0.00 0.00 0.00 0.00 0.00 0.00 0.00 0.00 0.00 0.00 0.00 0.00 0.00 0.00 0.02 0.12 0.14 0.01 0.00 0.00 0.00 0.00 0.00 0.00 0.00 0.00 0.00 0.01 0.03 0.01 0.00
0.00 0.00 0.01 0.01 0.00 0.00 0.00 0.01 0.01 0.00 0.00 0.00 0.00 0.00 0.00 0.00 0.00 0.00 0.00 0.00 0.00 0.04 0.02 0.00 0.01 0.00 0.00 0.01 0.02 0.10 0.20 0.04 0.00 0.01 0.00 0.00 0.00 0.00 0.00 0.00 0.01 0.03 0.07 0.06 0.02
0.00 0.00 0.01 0.01 0.00 0.00 0.00 0.01 0.01 0.00 0.00 0.00 0.00 0.00 0.00 0.00 0.00 0.00 0.00 0.00 0.00 0.06 0.08 0.03 0.03 0.02 0.01 0.02 0.03 0.17 0.14 0.05 0.01 0.04 0.01 0.00 0.00 0.00 0.00 0.00 0.00 0.02 0.01 0.09 0.11
0.00 0.00 0.01 0.01 0.00 0.01 0.00 0.00 0.01 0.01 0.00 0.00 0.00 0.00 0.00 0.00 0.00 0.00 0.00 0.00 0.00 0.09 0.15 0.05 0.03 0.04 0.02 0.01 0.02 0.10 0.16 0.06 0.01 0.07 0.04 0.00 0.00 0.00 0.00 0.00 0.00 0.01 0.06 0.09 0.07
0.00 0.00 0.00 0.01 0.01 0.01 0.00 0.00 0.01 0.01 0.00 0.00 0.00 0.00 0.00 0.00 0.00 0.00 0.00 0.00 0.00 0.01 0.06 0.04 0.03 0.07 0.03 0.00 0.01 0.03 0.11 0.09 0.10 0.03 0.07 0.03 0.00 0.00 0.00 0.00 0.00 0.00 0.01 0.07 0.12
0.00 0.00 0.00 0.01 0.01 0.01 0.00 0.00 0.00 0.01 0.02 0.00 0.00 0.00 0.00 0.00 0.00 0.00 0.00 0.00 0.00 0.03 0.06 0.05 0.04 0.10 0.04 0.03 0.01 0.01 0.05 0.04 0.18 0.04 0.04 0.04 0.01 0.00 0.00 0.00 0.00 0.00 0.00 0.03 0.03
0.00 0.00 0.00 0.01 0.00 0.00 0.01 0.00 0.00 0.00 0.01 0.00 0.00 0.00 0.00 0.00 0.00 0.00 0.00 0.01 0.00 0.01 0.06 0.06 0.09 0.20 0.09 0.05 0.01 0.01 0.05 0.11 0.25 0.14 0.06 0.03 0.01 0.00 0.00 0.00 0.00 0.00 0.01 0.03 0.03
0.00 0.00 0.00 0.01 0.00 0.00 0.00 0.00 0.00 0.00 0.00 0.00 0.00 0.00 0.00 0.00 0.00 0.00 0.00 0.00 0.00 0.00 0.00 0.03 0.31 0.28 0.14 0.05 0.00 0.01 0.08 0.17 0.19 0.16 0.09 0.09 0.04 0.00 0.00 0.00 0.00 0.00 0.00 0.03 0.05
0.00 0.00 0.00 0.00 0.00 0.00 0.00 0.00 0.00 0.00 0.00 0.00 0.00 0.00 0.00 0.00 0.00 0.00 0.00 0.00 0.00 0.00 0.00 0.04 0.19 0.19 0.13 0.08 0.02 0.03 0.03 0.09 0.22 0.11 0.06 0.12 0.09 0.01 0.00 0.00 0.00 0.00 0.00 0.01 0.03
0.00 0.00 0.00 0.00 0.00 0.00 0.00 0.00 0.00 0.00 0.00 0.00 0.00 0.00 0.00 0.00 0.00 0.00 0.00 0.00 0.00 0.00 0.00 0.09 0.05 0.08 0.21 0.12 0.02 0.02 0.02 0.01 0.06 0.11 0.03 0.07 0.07 0.10 0.03 0.01 0.00 0.00 0.00 0.00 0.00
0.00 0.00 0.00 0.00 0.00 0.00 0.00 0.00 0.00 0.00 0.00 0.00 0.00 0.00 0.00 0.00 0.00 0.00 0.00 0.00 0.00 0.00 0.00 0.03 0.01 0.05 0.18 0.07 0.00 0.00 0.00 0.00 0.02 0.01 0.01 0.05 0.04 0.06 0.06 0.02 0.00 0.00 0.00 0.00 0.00
0.00 0.00 0.00 0.00 0.00 0.00 0.00 0.00 0.00 0.00 0.00 0.00 0.00 0.00 0.00 0.00 0.00 0.00 0.00 0.00 0.01 0.03 0.03 0.02 0.00 0.03 0.10 0.04 0.01 0.01 0.01 0.00 0.03 0.03 0.01 0.05 0.03 0.03 0.08 0.03 0.00 0.00 0.00 0.00 0.00
0.00 0.00 0.00 0.00 0.00 0.00 0.00 0.00 0.00 0.00 0.00 0.00 0.00 0.00 0.00 0.01 0.00 0.00 0.00 0.01 0.05 0.13 0.10 0.02 0.01 0.01 0.03 0.03 0.01 0.01 0.01 0.01 0.02 0.09 0.03 0.01 0.01 0.00 0.02 0.00 0.00 0.00 0.00 0.00 0.00
0.00 0.00 0.00 0.00 0.00 0.00 0.00 0.00 0.00 0.00 0.00 0.00 0.00 0.00 0.00 0.01 0.00 0.00 0.00 0.01 0.12 0.20 0.07 0.02 0.01 0.01 0.03 0.01 0.00 0.00 0.00 0.00 0.01 0.04 0.09 0.04 0.01 0.00 0.00 0.00 0.00 0.00 0.00 0.00 0.00
0.00 0.00 0.00 0.00 0.00 0.00 0.00 0.00 0.00 0.00 0.00 0.00 0.00 0.00 0.00 0.00 0.00 0.00 0.00 0.01 0.07 0.09 0.06 0.08 0.02 0.01 0.00 0.00 0.00 0.00 0.00 0.01 0.03 0.02 0.05 0.05 0.01 0.00 0.00 0.00 0.00 0.00 0.00 0.00 0.00
0.00 0.00 0.00 0.00 0.00 0.00 0.00 0.00 0.00 0.00 0.00 0.00 0.00 0.00 0.00 0.00 0.00 0.00 0.00 0.02 0.09 0.11 0.02 0.02 0.00 0.01 0.00 0.00 0.00 0.00 0.01 0.01 0.04 0.05 0.02 0.00 0.00 0.00 0.00 0.00 0.00 0.00 0.00 0.00 0.00
0.00 0.00 0.00 0.00 0.00 0.00 0.00 0.00 0.00 0.00 0.00 0.00 0.00 0.00 0.00 0.00 0.00 0.00 0.00 0.00 0.01 0.02 0.05 0.05 0.11 0.05 0.00 0.00 0.00 0.03 0.02 0.10 0.16 0.14 0.00 0.00 0.00 0.00 0.00 0.00 0.00 0.00 0.00 0.00 0.00
0.00 0.00 0.00 0.00 0.00 0.00 0.00 0.00 0.00 0.00 0.00 0.00 0.00 0.00 0.00 0.00 0.00 0.00 0.00 0.00 0.01 0.00 0.00 0.03 0.04 0.00 0.00 0.00 0.06 0.07 0.02 0.01 0.03 0.01 0.00 0.00 0.00 0.00 0.00 0.00 0.00 0.00 0.00 0.00 0.00
0.00 0.00 0.00 0.00 0.00 0.00 0.00 0.00 0.00 0.00 0.00 0.00 0.00 0.00 0.00 0.00 0.00 0.00 0.00 0.00 0.00 0.00 0.00 0.00 0.00 0.00 0.00 0.00 0.04 0.03 0.00 0.00 0.00 0.00 0.00 0.00 0.00 0.00 0.00 0.00 0.00 0.00 0.00 0.00 0.00
0.00 0.00 0.00 0.00 0.00 0.00 0.00 0.00 0.00 0.00 0.00 0.00 0.00 0.00 0.00 0.00 0.00 0.00 0.00 0.00 0.00 0.00 0.00 0.00 0.00 0.00 0.00 0.00 0.00 0.00 0.00 0.00 0.00 0.00 0.00 0.00 0.00 0.00 0.00 0.00 0.00 0.00 0.00 0.00 0.00
0.00 0.00 0.00 0.00 0.00 0.00 0.00 0.00 0.00 0.00 0.00 0.00 0.00 0.00 0.00 0.00 0.00 0.00 0.00 0.00 0.00 0.00 0.00 0.00 0.00 0.00 0.00 0.00 0.00 0.00 0.00 0.00 0.00 0.00 0.00 0.00 0.00 0.00 0.00 0.00 0.00 0.00 0.00 0.00 0.00
0.00 0.00 0.00 0.00 0.00 0.00 0.00 0.00 0.00 0.00 0.00 0.00 0.00 0.00 0.00 0.00 0.00 0.00 0.00 0.00 0.00 0.00 0.00 0.00 0.00 0.00 0.00 0.00 0.00 0.00 0.00 0.00 0.00 0.00 0.00 0.00 0.00 0.00 0.00 0.00 0.00 0.00 0.00 0.00 0.00
0.00 0.00 0.00 0.00 0.00 0.00 0.00 0.00 0.00 0.00 0.00 0.00 0.00 0.00 0.00 0.00 0.00 0.00 0.00 0.00 0.00 0.00 0.00 0.00 0.00 0.00 0.00 0.00 0.00 0.00 0.00 0.00 0.00 0.00 0.00 0.00 0.00 0.00 0.00 0.00 0.00 0.00 0.00 0.00 0.00
0.00 0.00 0.00 0.00 0.00 0.00 0.00 0.00 0.00 0.00 0.00 0.00 0.00 0.00 0.00 0.00 0.00 0.00 0.00 0.00 0.00 0.00 0.00 0.00 0.00 0.00 0.00 0.00 0.00 0.00 0.00 0.00 0.00 0.00 0.00 0.00 0.00 0.00 0.00 0.00 0.00 0.00 0.00 0.00 0.00
0.00 0.00 0.00 0.00 0.00 0.00 0.00 0.00 0.00 0.00 0.00 0.00 0.00 0.00 0.00 0.00 0.00 0.00 0.00 0.00 0.00 0.00 0.00 0.00 0.00 0.00 0.00 0.00 0.00 0.00 0.00 0.00 0.00 0.00 0.00 0.00 0.00 0.00 0.00 0.00 0.00 0.00 0.00 0.00 0.00
0.00 0.00 0.00 0.00 0.00 0.00 0.00 0.00 0.00 0.00 0.00 0.00 0.00 0.00 0.00 0.00 0.00 0.00 0.00 0.00 0.00 0.00 0.00 0.00 0.00 0.00 0.00 0.00 0.00 0.00 0.00 0.00 0.00 0.00 0.00 0.00 0.00 0.00 0.00 0.00 0.00 0.00 0.00 0.00 0.00
0.00 0.00 0.00 0.00 0.00 0.00 0.00 0.00 0.00 0.00 0.00 0.00 0.00 0.00 0.00 0.00 0.00 0.00 0.00 0.00 0.00 0.00 0.00 0.00 0.00 0.00 0.00 0.00 0.00 0.00 0.00 0.00 0.00 0.00 0.00 0.00 0.00 0.00 0.00 0.00 0.00 0.00 0.00 0.00 0.00
MSLP
1020.01 1019.84 1019.53 1019.34 1019.21 1019.14 1019.07 1018.73 1018.55 1018.34 1018.14 1017.96 1017.75 1017.55 1017.36 1017.28 1017.19 1017.18 1016.94 1016.26 1015.94 1015.48 1015.20 1015.56 1015.56 1015.61 1015.71 1015.70 1015.44 1014.68 1014.01 1013.40 1013.15 1012.57 1011.44 1010.48 1010.14 1009.83 1009.54 1009.94 1010.56 1010.67 1010.86 1011.17 1012.49
1019.71 1019.60 1019.54 1019.20 1019.14 1018.80 1018.98 1018.67 1018.35 1018.24 1018.09 1017.93 1017.70 1017.47 1017.32 1017.20 1017.20 1016.88 1016.16 1015.64 1015.35 1015.57 1015.95 1016.00 1015.84 1015.92 1015.87 1015.35 1015.16 1014.33 1013.84 1013.10 1012.56 1012.35 1011.81 1011.14 1010.43 1010.03 1010.20 1010.51 1010.95 1011.03 1011.32 1011.86 1012.63
1019.38 1019.47 1019.21 1019.02 1018.99 1018.73 1018.68 1018.54 1018.26 1018.07 1017.98 1017.89 1017.66 1017.45 1017.30 1017.18 1017.14 1016.22 1015.58 1015.41 1015.36 1015.67 1016.15 1016.45 1016.07 1016.10 1015.96 1015.37 1014.88 1013.95 1013.16 1013.13 1012.71 1012.45 1012.23 1011.57 1010.94 1010.60 1010.63 1011.15 1010.89 1011.16 1011.41 1011.86 1012.73
1018.98 1019.06 1018.93 1018.71 1018.89 1018.51 1018.48 1018.33 1018.15 1017.90 1017.86 1017.80 1017.60 1017.34 1017.13 1017.12 1016.87 1015.66 1015.27 1015.14 1015.18 1015.75 1016.35 1016.46 1016.21 1016.23 1015.87 1015.22 1014.55 1014.02 1013.72 1013.08 1012.58 1012.58 1012.42 1012.23 1011.86 1011.42 1011.15 1011.19 1010.77 1011.06 1011.60 1011.80 1012.28
1018.79 1018.54 1018.64 1018.49 1018.62 1018.37 1018.28 1018.08 1017.88 1017.68 1017.67 1017.71 1017.52 1017.34 1017.20 1017.01 1016.23 1015.36 1014.94 1015.00 1015.07 1015.39 1015.72 1016.30 1016.17 1016.02 1015.69 1015.01 1014.67 1014.02 1013.43 1013.85 1013.51 1012.66 1012.74 1012.53 1012.45 1012.20 1011.87 1011.62 1011.34 1011.38 1011.65 1012.26 1012.77
1018.55 1018.14 1018.31 1018.18 1018.27 1018.17 1018.06 1017.89 1017.73 1017.57 1017.52 1017.54 1017.45 1017.43 1017.46 1016.89 1015.43 1015.12 1015.02 1014.99 1015.24 1015.47 1015.54 1015.63 1015.66 1015.62 1015.88 1015.08 1014.49 1013.26 1013.49 1013.07 1012.91 1013.21 1013.06 1012.95 1012.84 1012.09 1012.38 1012.21 1012.14 1012.24 1012.33 1012.45 1012.61
1018.06 1017.92 1017.95 1017.82 1017.97 1017.94 1017.84 1017.65 1017.56 1017.49 1017.44 1017.42 1017.39 1017.43 1017.35 1016.35 1015.28 1015.25 1014.90 1015.17 1015.40 1015.38 1015.43 1016.13 1015.86 1016.09 1015.55 1014.68 1013.79 1013.46 1013.30 1012.86 1013.43 1013.82 1013.56 1013.34 1013.59 1013.31 1012.84 1012.88 1012.75 1012.69 1012.69 1012.97 1012.83
1017.64 1017.58 1017.66 1017.52 1017.66 1017.69 1017.65 1017.52 1017.41 1017.35 1017.30 1017.30 1017.22 1017.39 1016.71 1015.33 1015.17 1015.15 1015.09 1015.44 1015.50 1015.73 1015.72 1015.85 1016.21 1015.94 1015.31 1014.53 1013.90 1013.94 1013.69 1013.50 1013.83 1013.78 1013.73 1013.72 1013.91 1013.77 1013.51 1013.60 1013.56 1013.31 1013.19 1013.17 1013.16
1017.21 1017.32 1017.38 1017.25 1017.42 1017.46 1017.41 1017.34 1017.16 1017.05 1017.11 1017.11 1017.28 1017.17 1016.24 1015.09 1015.08 1015.07 1015.10 1015.08 1015.35 1015.74 1015.68 1015.49 1015.53 1015.54 1014.79 1014.26 1013.94 1013.78 1012.99 1013.19 1013.56 1013.26 1014.12 1014.75 1014.84 1014.02 1013.90 1014.24 1014.39 1013.88 1013.62 1013.42 1013.35
1016.92 1017.04 1017.01 1017.04 1017.17 1017.18 1017.22 1017.07 1016.94 1017.06 1017.06 1016.94 1016.94 1017.31 1016.02 1015.59 1015.26 1015.06 1015.02 1014.95 1015.14 1015.11 1015.52 1015.24 1014.98 1015.12 1014.88 1014.27 1013.14 1013.08 1012.88 1013.05 1013.17 1013.78 1013.99 1015.06 1015.37 1015.33 1014.39 1014.29 1014.56 1014.45 1013.98 1013.82 1013.70
1016.53 1016.76 1016.70 1016.80 1016.91 1016.95 1017.27 1017.14 1017.40 1017.50 1017.13 1016.82 1016.56 1016.17 1015.74 1015.57 1015.12 1015.21 1015.32 1015.09 1015.18 1015.26 1015.05 1015.29 1014.89 1014.57 1014.53 1013.86 1013.00 1012.46 1012.49 1012.93 1012.98 1013.44 1014.16 1014.45 1015.37 1014.82 1014.53 1014.70 1014.46 1015.11 1014.43 1014.15 1013.79
1016.05 1016.44 1016.40 1016.53 1016.61 1016.82 1017.22 1017.06 1016.65 1016.91 1016.85 1016.33 1016.10 1015.83 1015.66 1015.79 1015.64 1015.50 1015.44 1015.42 1015.22 1015.55 1015.46 1015.02 1014.48 1014.49 1014.36 1013.45 1012.81 1012.10 1011.97 1012.34 1012.79 1013.18 1014.16 1015.30 1015.55 1015.32 1015.09 1014.84 1014.73 1014.78 1014.48 1014.13 1013.75
1015.57 1016.08 1016.18 1016.35 1016.45 1016.94 1017.10 1016.60 1016.30 1016.53 1016.79 1016.32 1015.94 1015.74 1015.81 1016.10 1016.06 1015.93 1015.93 1015.54 1015.57 1015.39 1014.95 1014.28 1013.88 1013.64 1013.24 1013.03 1012.29 1011.78 1011.75 1011.83 1013.33 1014.39 1014.73 1015.23 1015.26 1014.73 1015.08 1015.33 1014.69 1014.37 1013.79 1013.76 1013.73
1015.21 1015.67 1015.95 1016.17 1016.72 1016.52 1016.66 1016.17 1016.30 1016.61 1017.12 1016.84 1015.92 1015.64 1015.74 1016.02 1016.22 1015.61 1015.67 1015.61 1015.40 1015.24 1014.67 1014.06 1013.44 1012.90 1013.01 1012.47 1011.62 1011.69 1011.66 1012.16 1013.55 1014.98 1015.51 1015.65 1015.54 1014.57 1014.29 1014.11 1013.92 1013.45 1013.72 1013.69 1013.55
1014.94 1015.35 1015.64 1015.84 1016.15 1016.31 1016.21 1016.11 1016.38 1017.02 1017.73 1016.98 1015.90 1015.19 1015.43 1015.99 1015.98 1015.45 1015.29 1015.22 1015.15 1014.43 1014.45 1014.63 1013.71 1013.61 1013.14 1012.80 1012.07 1012.57 1012.39 1012.96 1014.32 1015.74 1016.47 1016.36 1016.36 1014.42 1013.95 1013.89 1013.56 1013.36 1013.16 1013.04 1013.12
1014.71 1015.03 1015.43 1015.82 1016.10 1015.95 1015.91 1016.19 1016.95 1018.07 1018.29 1017.34 1016.20 1015.52 1015.61 1015.68 1015.39 1015.25 1015.15 1015.21 1015.09 1014.73 1014.41 1014.31 1014.22 1014.07 1013.91 1013.25 1012.62 1012.93 1013.55 1014.48 1015.33 1016.47 1016.62 1016.11 1016.26 1013.60 1013.35 1012.42 1012.29 1012.49 1012.55 1012.58 1012.58
1014.38 1014.77 1015.31 1015.36 1015.45 1015.68 1015.98 1016.88 1017.79 1018.00 1018.29 1017.49 1016.63 1015.87 1015.41 1015.50 1015.29 1015.19 1014.99 1014.77 1014.80 1014.74 1015.11 1015.12 1015.27 1014.78 1014.04 1013.61 1013.36 1013.24 1014.20 1015.66 1016.77 1017.11 1016.20 1015.52 1015.86 1013.14 1012.46 1011.53 1011.38 1011.90 1012.07 1012.12 1012.24
1014.08 1014.59 1015.09 1015.04 1015.15 1015.65 1016.40 1017.43 1017.89 1017.97 1017.72 1017.04 1016.37 1015.85 1015.69 1015.22 1014.77 1015.11 1015.05 1015.07 1014.68 1014.86 1015.53 1015.82 1016.14 1015.47 1014.91 1014.77 1014.71 1014.64 1015.10 1015.62 1016.44 1017.03 1016.76 1015.93 1014.93 1013.03 1011.90 1011.36 1010.94 1011.14 1011.42 1011.76 1012.26
1013.76 1014.83 1015.29 1015.38 1015.27 1015.89 1016.77 1017.12 1016.87 1016.72 1016.46 1016.54 1016.28 1015.84 1015.13 1015.01 1014.98 1014.66 1014.77 1015.07 1014.86 1014.79 1015.32 1015.84 1016.29 1015.70 1015.33 1015.29 1015.03 1015.07 1015.42 1015.16 1015.81 1017.10 1016.76 1016.15 1014.66 1013.03 1012.32 1011.93 1011.52 1011.72 1011.86 1012.04 1012.14
1013.26 1014.73 1015.47 1015.28 1015.48 1016.38 1016.97 1016.48 1015.96 1015.37 1015.22 1015.49 1015.56 1015.14 1014.90 1014.58 1014.68 1014.52 1014.80 1014.82 1014.76 1014.68 1014.64 1015.23 1016.06 1016.01 1015.46 1015.15 1014.84 1014.44 1014.70 1015.20 1016.18 1017.36 1017.18 1016.13 1014.78 1012.94 1012.53 1012.19 1012.12 1012.12 1012.12 1012.21 1012.30
1012.85 1014.44 1015.49 1015.34 1015.88 1016.57 1016.50 1015.83 1015.03 1014.52 1014.10 1014.31 1014.51 1014.60 1014.39 1014.16 1014.22 1014.46 1015.22 1015.00 1014.81 1014.76 1014.57 1015.01 1015.72 1016.52 1015.89 1015.72 1015.39 1014.96 1015.01 1015.66 1016.45 1017.21 1017.58 1017.09 1015.25 1013.45 1012.85 1012.55 1012.59 1012.63 1012.40 1012.17 1012.23
1012.67 1014.53 1015.50 1015.57 1016.26 1016.02 1015.66 1014.59 1014.10 1014.05 1013.85 1013.71 1013.87 1013.87 1013.85 1013.80 1013.98 1014.27 1014.93 1014.98 1014.86 1014.95 1015.22 1015.54 1016.18 1016.87 1016.56 1016.01 1015.60 1015.48 1015.70 1016.14 1016.79 1017.73 1018.04 1017.26 1015.07 1013.33 1012.88 1012.77 1012.50 1012.63 1012.52 1012.44 1012.76
1012.94 1014.71 1015.54 1015.55 1015.87 1015.75 1014.80 1014.01 1013.70 1013.70 1013.62 1013.61 1013.51 1013.30 1013.12 1013.37 1013.94 1014.45 1014.84 1014.97 1014.84 1014.92 1015.46 1015.71 1016.77 1017.51 1017.10 1016.56 1015.99 1015.92 1016.01 1016.35 1017.19 1017.92 1018.10 1017.47 1015.34 1013.67 1013.23 1013.16 1013.06 1013.20 1013.24 1013.19 1013.13
1012.20 1014.57 1015.71 1015.79 1015.39 1014.98 1014.32 1013.90 1013.61 1013.27 1013.23 1013.06 1012.96 1012.86 1013.04 1013.38 1013.58 1014.47 1014.93 1014.95 1014.98 1015.10 1015.22 1015.43 1016.64 1017.28 1017.50 1017.22 1016.80 1016.47 1016.19 1016.35 1017.07 1018.03 1017.50 1016.79 1015.44 1014.44 1014.12 1013.94 1013.63 1013.52 1013.47 1013.31 1013.40
1011.36 1013.23 1013.52 1014.74 1015.05 1014.54 1013.84 1013.46 1013.32 1013.30 1013.24 1013.15 1013.22 1013.17 1013.33 1013.81 1014.12 1014.64 1014.99 1015.16 1015.23 1015.27 1015.41 1015.96 1017.26 1017.48 1017.33 1016.95 1016.82 1016.54 1016.32 1016.36 1016.65 1016.62 1016.77 1015.70 1015.25 1014.27 1013.86 1013.74 1013.47 1013.20 1013.13 1013.21 1013.19
1011.32 1012.28 1013.21 1013.63 1013.82 1014.41 1013.77 1013.27 1013.05 1013.15 1013.17 1013.47 1013.49 1013.57 1013.63 1014.25 1014.54 1014.86 1015.15 1015.28 1015.26 1015.60 1015.83 1016.26 1017.25 1017.61 1017.72 1017.09 1016.88 1016.62 1016.28 1016.30 1016.25 1016.25 1015.97 1015.26 1014.61 1013.93 1013.36 1013.38 1013.36 1013.29 1013.07 1013.16 1013.21
1011.05 1011.36 1011.78 1013.43 1014.02 1014.21 1013.39 1012.96 1012.89 1012.97 1013.62 1013.42 1013.61 1014.02 1014.37 1014.71 1014.74 1015.01 1015.14 1015.08 1015.03 1015.60 1016.19 1016.69 1017.45 1018.06 1018.16 1017.76 1017.19 1016.81 1015.86 1015.66 1015.67 1015.42 1015.23 1014.76 1013.97 1013.50 1013.35 1013.26 1013.04 1013.06 1013.10 1013.16 1013.20
Thickness
5602 5598 5596 5593 5589 5582 5574 5569 5563 5555 5545 5536 5528 5521 5517 5513 5510 5506 5502 5505 5508 5511 5517 5519 5524 5528 5529 5541 5557 5575 5576 5591 5605 5614 5640 5659 5662 5676 5687 5687 5690 5697 5705 5711 5708
5599 5595 5590 5588 5582 5578 5567 5562 5556 5547 5536 5526 5518 5511 5506 5501 5496 5489 5490 5486 5487 5487 5489 5496 5504 5510 5517 5537 5547 5557 5573 5591 5614 5621 5633 5641 5655 5666 5672 5677 5681 5690 5699 5701 5703
5595 5590 5586 5583 5576 5571 5563 5556 5549 5540 5528 5517 5508 5501 5494 5487 5477 5475 5470 5465 5462 5461 5464 5469 5484 5495 5506 5526 5539 5563 5578 5590 5603 5616 5626 5636 5647 5660 5661 5662 5682 5683 5693 5694 5693
5593 5588 5583 5580 5571 5566 5558 5551 5543 5532 5519 5508 5497 5490 5483 5474 5462 5462 5454 5451 5447 5444 5442 5450 5463 5474 5493 5514 5537 5551 5563 5578 5599 5609 5619 5625 5633 5644 5659 5666 5683 5687 5688 5691 5692
5587 5587 5580 5576 5567 5561 5554 5547 5536 5526 5511 5498 5488 5479 5470 5459 5451 5450 5445 5441 5439 5438 5441 5444 5449 5467 5483 5506 5525 5541 5560 5571 5584 5605 5610 5620 5621 5633 5649 5662 5674 5680 5686 5684 5684
5583 5585 5578 5574 5565 5557 5551 5543 5532 5520 5505 5491 5480 5468 5455 5442 5451 5443 5439 5436 5435 5436 5439 5443 5450 5465 5472 5494 5514 5550 5559 5572 5575 5592 5602 5608 5616 5634 5643 5653 5661 5668 5672 5678 5684
5581 5580 5577 5572 5563 5555 5548 5539 5527 5514 5499 5485 5473 5458 5445 5440 5446 5437 5434 5432 5434 5436 5440 5435 5446 5457 5477 5502 5524 5541 5552 5568 5570 5579 5591 5602 5606 5614 5633 5644 5651 5659 5666 5666 5675
5579 5578 5574 5569 5561 5554 5545 5535 5523 5509 5493 5479 5467 5452 5438 5447 5442 5434 5432 5430 5432 5432 5436 5439 5443 5460 5476 5499 5518 5529 5541 5548 5566 5569 5580 5593 5597 5608 5621 5629 5637 5649 5657 5661 5666
5577 5576 5571 5567 5559 5552 5543 5532 5520 5506 5489 5476 5459 5446 5438 5444 5440 5434 5432 5435 5434 5433 5437 5444 5451 5462 5482 5500 5513 5524 5533 5549 5562 5568 5572 5578 5580 5603 5614 5615 5624 5638 5648 5656 5659
5574 5573 5570 5564 5558 5551 5541 5530 5518 5502 5487 5471 5457 5437 5442 5438 5436 5433 5433 5437 5437 5443 5439 5448 5459 5462 5474 5496 5514 5523 5534 5547 5549 5560 5569 5567 5575 5585 5604 5612 5619 5628 5639 5647 5653
5572 5570 5568 5562 5557 5549 5538 5526 5512 5494 5480 5468 5457 5446 5442 5437 5433 5431 5432 5438 5441 5445 5444 5449 5468 5478 5486 5507 5520 5544 5548 5549 5556 5562 5565 5572 5576 5581 5594 5601 5611 5617 5630 5639 5649
5571 5567 5566 5561 5556 5548 5535 5524 5515 5497 5481 5471 5458 5447 5442 5434 5429 5432 5437 5443 5447 5441 5447 5464 5473 5481 5485 5508 5525 5541 5549 5554 5563 5571 5568 5563 5568 5580 5587 5598 5606 5611 5622 5632 5643
5569 5564 5563 5559 5555 5544 5532 5528 5516 5499 5479 5474 5460 5449 5441 5435 5433 5437 5441 5447 5444 5450 5460 5481 5490 5499 5509 5518 5534 5544 5549 5558 5555 5555 5561 5560 5564 5583 5584 5589 5600 5610 5621 5628 5636
5566 5562 5560 5557 5550 5545 5534 5530 5516 5498 5448 5463 5463 5454 5450 5446 5442 5454 5454 5454 5455 5461 5473 5488 5504 5515 5514 5528 5547 5545 5560 5567 5556 5544 5547 5560 5559 5576 5588 5591 5602 5618 5614 5620 5632
5561 5559 5559 5557 5551 5544 5538 5529 5515 5493 5425 5472 5466 5472 5467 5461 5459 5466 5466 5469 5473 5486 5491 5488 5512 5516 5523 5530 5544 5544 5557 5560 5553 5544 5539 5545 5545 5576 5583 5589 5600 5606 5617 5623 5629
5557 5556 5556 5553 5549 5545 5538 5528 5510 5463 5439 5456 5476 5480 5475 5476 5480 5476 5477 5474 5476 5489 5500 5504 5508 5513 5518 5532 5544 5545 5543 5543 5544 5535 5533 5549 5548 5577 5579 5596 5608 5611 5617 5623 5630
5554 5553 5552 5553 5551 5545 5536 5521 5485 5459 5477 5469 5474 5491 5493 5484 5490 5487 5490 5491 5494 5491 5491 5501 5500 5511 5525 5533 5541 5545 5536 5528 5527 5526 5539 5554 5550 5578 5592 5605 5611 5611 5614 5620 5627
5551 5549 5550 5552 5549 5543 5531 5505 5484 5502 5480 5488 5491 5495 5493 5502 5508 5498 5500 5496 5508 5506 5505 5490 5504 5513 5521 5525 5527 5533 5534 5530 5530 5526 5537 5549 5551 5573 5597 5609 5617 5616 5619 5620 5622
5548 5543 5545 5546 5545 5539 5527 5488 5502 5501 5501 5490 5494 5497 5503 5511 5508 5514 5513 5506 5512 5514 5504 5491 5501 5519 5523 5523 5528 5531 5524 5547 5532 5522 5523 5546 5567 5586 5592 5596 5604 5607 5612 5616 5620
5546 5539 5539 5542 5541 5532 5513 5524 5514 5524 5517 5510 5501 5507 5513 5519 5518 5520 5519 5520 5521 5522 5524 5521 5493 5518 5526 5530 5537 5542 5548 5536 5512 5529 5544 5542 5556 5570 5585 5591 5597 5600 5604 5607 5610
5544 5539 5534 5538 5535 5527 5505 5516 5535 5536 5533 5525 5521 5513 5523 5525 5524 5526 5514 5520 5521 5523 5527 5528 5513 5511 5524 5521 5527 5534 5536 5537 5533 5527 5532 5535 5547 5568 5578 5581 5582 5586 5594 5601 5604
5540 5535 5530 5533 5529 5527 5527 5545 5551 5539 5532 5528 5526 5525 5523 5528 5531 5529 5520 5520 5524 5525 5524 5522 5509 5500 5522 5529 5534 5535 5535 5532 5502 5527 5498 5514 5543 5572 5578 5577 5579 5581 5588 5593 5593
5531 5528 5525 5529 5534 5526 5541 5556 5554 5541 5532 5528 5529 5534 5538 5536 5529 5525 5520 5524 5527 5526 5522 5525 5495 5506 5506 5521 5528 5530 5533 5534 5521 5505 5498 5504 5537 5567 5569 5571 5572 5573 5575 5577 5583
5534 5528 5522 5524 5532 5538 5550 5552 5550 5550 5544 5541 5538 5539 5538 5537 5537 5527 5523 5527 5528 5528 5532 5529 5511 5503 5484 5508 5515 5524 5530 5532 5519 5486 5523 5514 5544 5555 5556 5556 5560 5565 5567 5570 5571
5539 5526 5540 5532 5527 5536 5553 5556 5551 5547 5548 5544 5538 5538 5538 5532 5532 5526 5522 5524 5527 5528 5529 5522 5501 5492 5521 5526 5516 5523 5528 5528 5509 5528 5514 5543 5534 5546 5549 5548 5556 5558 5562 5563 5566
5537 5532 5531 5529 5539 5533 5544 5553 5554 5552 5548 5543 5538 5538 5536 5527 5528 5524 5518 5519 5523 5524 5525 5518 5493 5495 5500 5523 5523 5523 5521 5518 5521 5526 5523 5531 5533 5545 5544 5542 5544 5548 5555 5557 5557
5534 5540 5545 5538 5533 5537 5548 5555 5560 5553 5548 5547 5543 5529 5526 5522 5521 5519 5515 5521 5528 5520 5515 5516 5501 5489 5486 5509 5513 5506 5519 5519 5521 5524 5527 5525 5540 5542 5541 5540 5542 5546 5547 5548 5550